STARLINK-32079, 60336

Orbit data source: Space-Track

STARLINK-32079, 60336 is a payload satellite owned by SpaceX/Seattle (US) in LEO that was launched on Fri, 02 Aug 2024 UTC via an FALCON 9 launch vehicle from the Air Force Eastern Test Range (AFETR). Payload-class satellites include a variety of spacecraft equipped with specific instruments for various scientific and technological missions. These include communications satellites like Starlink; space stations such as the ISS; scientific satellites like the Hubble; Earth observation satellites from companies like Planet Labs, Umbra, and HawkEye 360; GPS; miniature CubeSats for education and research; and military/defense satellites.

Loading next visibility...
Identifier
60336, 2024-136H
Orbit
LEO
Last TLE update
1 day ago
Origin
Manufacturer
SpaceX/Seattle
Mission
Operational Commercial Communications
Bus & Motor
STARLINK V2M, Unknown motor
Mass
730 kg wet, ~700 kg dry
Launch date (UTC)
2024-08-02 (11 months ago)
Launch vehicle
FALCON 9
Launch site
Air Force Eastern Test Range (AFETR)
Object type
Payload
Rocket body
Debris
Shape & HBR
Box + 2 Pan, 29 m
Radar Cross Section
33.884 m², Large (>1 m²)

Expand to show TLE details & history

TLE from 1 day ago
0 STARLINK-32079
1 60336U 24136H   25188.17460700 -.00000043  00000-0  10689-4 0  9999
2 60336  53.1602 136.1655 0001420  82.5979 277.5183 15.30185568 53284
Epoch: 2025-07-07T04:11Z
TLE epoch observation values (Epoch: 2025-07-07T04:11:26.044Z)
Latitude
-0.00005°
Longitude
147.91922°
Altitude
476.031 km
Speed
7.629 km/s
True Right ascension
09h 04m 39s
True Declination
0° 00' 00"
Sunlit
Object was in daylight at epoch
Visualization orbit readout
Latitude
-50.05216°
Longitude
79.70085°
Altitude
493.436 km
Speed
7.617 km/s
Apparent Right ascension
06h 27m 29s
Apparent Declination
-48° 22' 52"
Sunlit
Object is in daylight
Visualization observer readout
Local Sidereal Time
20:10:59
Azimuth
123.235° SE
Elevation
-69.723°
Doppler factor
1
Orbital elements
Apogee altitude
476.488 km
Perigee altitude
474.541 km
Semi-major axis
6,853.652 km
Eccentricity
0.00014
Inclination
53.1602°
RAAN
136.1655°
Arg. of periapsis
82.5979°
True anomaly
Unknown
Mean anomaly
277.5183°
Eccentric anomaly
Unknown
Mean motion
3.82525 °/min
Orbital period
94.11 mins
BSTAR
0.000010689
Loading maneuver chart data...
Loading SW <> Apogee altitude chart data...
Loading historical data...
Loading historical data...
Loading historical data...
Loading historical data...
Loading historical data...
Loading historical data...
Loading historical data...

STARLINK-32079 Visibility forecast

Observer location: undefined°, undefined°

Span
Click to sort rows by Start time (UTC) header in descending order
Start Az.
Max El. time (UTC)
Max El. Az.
Max El.
End time (UTC)
End Az.
6 mins2025-07-08 22:41:20.277Z217.491° SW2025-07-08 22:44:20.277Z124.162° SE42.301°2025-07-08 22:47:20.277Z56.201° ENE
5 mins2025-07-09 05:17:20.277Z326.908° NNW2025-07-09 05:19:20.277Z42.416° NE39.422°2025-07-09 05:22:20.277Z113.839° SE
|